Showing default

FARADAY_PHOENIX, 48924

Orbit data source: Space-Track

FARADAY_PHOENIX, 48924 is a payload satellite owned by In-Space (UK) in SSO that was launched on Wed, 30 Jun 2021 UTC via an FALCON 9 launch vehicle from the Air Force Eastern Test Range (AFETR). Payload-class satellites include a variety of spacecraft equipped with specific instruments for various scientific and technological missions. These include communications satellites like Starlink; space stations such as the ISS; scientific satellites like the Hubble; Earth observation satellites from companies like Planet Labs, Umbra, and HawkEye 360; GPS; miniature CubeSats for education and research; and military/defense satellites.

Loading next visibility...
Identifier
48924, 2021-059AX
Orbit
SSO
Country
Flag of UKUK
Related business
Manufacturer
GOMSpace
Mission
Operational Commercial Technology
Bus & Motor
CUBESAT 6U, Unknown motor
Mass
10 kg wet, ~10 kg dry
Launch date (UTC)
2021-06-30 (4 years ago)
Launch vehicle
FALCON 9
Launch site
Air Force Eastern Test Range (AFETR)
Object type
Payload
Rocket body
Debris
Shape & HBR
Box, 0.1 m
Radar Cross Section
0.080 m², Small (<0.1 m²)

Expand to show TLE details & history
Last TLE update: 10 hours ago

TLE from 10 hours ago
0 FARADAY_PHOENIX
1 48924U 21059AX  25345.23880720  .00039795  00000-0  66690-3 0  9996
2 48924  97.6895 162.0346 0006049 308.2037  51.8669 15.51725216248315
Epoch: 2025-12-11T05:43Z
TLE epoch observation values (Epoch: 2025-12-11T05:43:52.942Z)
Latitude
-0.00002°
Longitude
-4.13363°
Altitude
412.278 km
Speed
7.665 km/s
True Right ascension
10h 48m 08s
True Declination
0° 00' 00"
Sunlit
Object was in daylight at epoch
Visualization orbit readout
Latitude
Unknown
Longitude
Unknown
Altitude
Unknown
Speed
Unknown
Apparent Right ascension
Unknown
Apparent Declination
Unknown
Sunlit
N/A
Visualization observer readout
Local Sidereal Time
14:05:53
Azimuth
Unknown
Elevation
Unknown
Doppler factor
Unknown
Orbital elements
Apogee altitude
412.73 km
Perigee altitude
404.52 km
Semi-major axis
6,786.762 km
Eccentricity
0.0006
Inclination
97.6895°
RAAN
162.0346°
Arg. of periapsis
308.2037°
True anomaly
51.92145°
Mean anomaly
51.8669°
Eccentric anomaly
51.89417°
Mean motion
3.88194 °/min
Orbital period
92.74 mins
BSTAR
0.0006669
Loading maneuver chart data...
Computing Atmospheric mass density...

Documentation

Showing up to 5 results
|